Location: Sternwarte Hubelmatt
(47.0367°N, 8.3053°E)
Time: 11:15:26
(UTC+02:00)

XW-2C - Visible Passes

Search period start: 09 October 2024 00:00
Search period end: 19 October 2024 00:00
Orbit: 398 x 404 km, 97.5° (Epoch: 08 October)

Date Brightness Start Highest point End Pass type
(mag) Time Alt. Az. Time Alt. Az. Time Alt. Az.
09 Oct ? 20:07:56 10° S 20:11:00 55° W 20:14:05 10° NNW visible
10 Oct ? 19:18:16 10° SE 19:20:59 28° ENE 19:23:43 10° N visible
10 Oct ? 20:50:48 10° SW 20:52:48 16° W 20:54:49 10° NW visible
11 Oct ? 19:59:13 10° S 20:02:19 76° WSW 20:05:27 10° NNW visible
12 Oct ? 19:09:34 10° ESE 19:12:01 22° ENE 19:14:29 10° NNE visible
12 Oct ? 20:41:17 10° SW 20:43:41 20° W 20:46:06 10° NW visible
13 Oct ? 19:49:49 10° SSE 19:52:55 77° ENE 19:56:01 10° N visible
14 Oct ? 20:31:08 10° SSW 20:33:49 27° W 20:36:32 10° NW visible
15 Oct ? 19:39:45 10° SSE 19:42:44 52° ENE 19:45:47 10° N visible
16 Oct ? 20:20:19 10° S 20:23:12 38° W 20:26:08 10° NNW visible
17 Oct ? 19:29:00 10° SE 19:31:51 36° ENE 19:34:43 10° N visible
17 Oct ? 21:02:26 10° WSW 21:03:42 12° W 21:04:59 10° WNW visible
18 Oct ? 20:08:51 10° S 20:11:51 57° WSW 20:14:54 10° NNW visible
